Change the Weather History Date:

Sunday, September 1, 2013

  Actual Average Record
Temperature  
Mean Temperature 78 °F -  
Max Temperature 93 °F 85 °F 102 °F (2006)
Min Temperature 64 °F 62 °F 60 °F (2002)
Cooling Degree Days 14    
Growing Degree Days 28 (Base 50)    
Moisture  
Dew Point 58 °F    
Average Humidity 47    
Maximum Humidity 68    
Minimum Humidity 30    
Precipitation  
Precipitation 0.00 in - - ()
Sea Level Pressure  
Sea Level Pressure 30.08 in    
Wind  
Wind Speed 3 mph ()    
Max Wind Speed 12 mph    
Max Gust Speed 23 mph    
Averages and records for this station are not official NWS values.
T = Trace of Precipitation, MM = Missing Value Source: Averaged Metar Reports

Daily Weather History Graph

Daily Weather History Graph

Search for Another Location

Airport or City:

Trip Planner

Search our weather history database for the weather conditions in past years. The results will help you decide how hot, cold, wet, or windy it might be!

Date:

Astronomy

Sep. 01, 2013 Rise Set
Actual Time 7:53 AM CEST 8:51 PM CEST
Civil Twilight 7:26 AM CEST 9:17 PM CEST
Nautical Twilight 6:54 AM CEST 9:49 PM CEST
Astronomical Twilight 6:22 AM CEST 10:21 PM CEST
Moon 4:05 AM CEST (9/1) 6:16 PM CEST (9/1)
Length of Visible Light 13h 51m
Length of Day
12h 57m
Waning Crescent, 15% of the Moon is Illuminated
Sep 1
Waning Crescent
Sep 5
New
Sep 12
First Quarter
Sep 19
Full
Sep 27
Last Quarter

Hourly Weather History & Observations

Time (CEST) Temp. Heat Index Dew Point Humidity Pressure Visibility Wind Dir Wind Speed Gust Speed Precip Events Conditions
12:00 AM 75.2 °F - 62.6 °F 65% 30.09 in - Variable 2.3 mph - N/A   Clear
1:00 AM 73.4 °F - 60.8 °F 65% 30.12 in - Variable 3.5 mph - N/A   Clear
2:00 AM 73.4 °F - 60.8 °F 65% 30.12 in - Calm Calm - N/A   Clear
3:00 AM 71.6 °F - 59.0 °F 64% 30.09 in - Calm Calm - N/A   Clear
4:00 AM 69.8 °F - 59.0 °F 68% 30.09 in - Calm Calm - N/A   Clear
5:00 AM 69.8 °F - 59.0 °F 68% 30.09 in - Variable 2.3 mph - N/A   Clear
6:00 AM 68.0 °F - 57.2 °F 68% 30.09 in - Variable 2.3 mph - N/A   Clear
8:00 AM 64.4 °F - 53.6 °F 68% 30.09 in - Variable 2.3 mph - N/A   Clear
9:00 AM 71.6 °F - 55.4 °F 57% 30.09 in - NE 2.3 mph - N/A   Clear
10:00 AM 78.8 °F - 55.4 °F 44% 30.09 in - Variable 2.3 mph - N/A   Clear
11:00 AM 82.4 °F 81.7 °F 55.4 °F 39% 30.09 in - ESE 6.9 mph - N/A   Clear
12:00 PM 86.0 °F 84.9 °F 57.2 °F 37% 30.09 in - Variable 2.3 mph - N/A   Clear
1:00 PM 89.6 °F 88.1 °F 57.2 °F 33% 30.09 in - East 6.9 mph - N/A   Clear
2:00 PM 91.4 °F 89.9 °F 57.2 °F 31% 30.06 in - East 10.4 mph - N/A   Clear
3:00 PM 93.2 °F 91.9 °F 57.2 °F 30% 30.06 in - SE 8.1 mph - N/A   Clear
4:00 PM 93.2 °F 91.9 °F 57.2 °F 30% 30.06 in - ENE 10.4 mph - N/A   Clear
5:00 PM 93.2 °F 91.9 °F 57.2 °F 30% 30.04 in - East 11.5 mph 23.0 mph N/A   Clear
6:00 PM 93.2 °F 91.9 °F 57.2 °F 30% 30.04 in - East 5.8 mph - N/A   Clear
7:00 PM 91.4 °F 89.9 °F 57.2 °F 31% 30.04 in - ESE 6.9 mph - N/A   Clear
8:00 PM 89.6 °F 88.1 °F 57.2 °F 33% 30.04 in - SE 8.1 mph - N/A   Clear
9:00 PM 86.0 °F 84.9 °F 57.2 °F 37% 30.04 in - SSE 9.2 mph - N/A   Clear
10:00 PM 82.4 °F 82.0 °F 57.2 °F 42% 30.06 in - SSE 4.6 mph - N/A   Clear
11:00 PM 78.8 °F - 57.2 °F 47% 30.09 in - Calm Calm - N/A   Clear